FW8671 Weather Reports


Display with metric or nautical units.
time (UTC)temp
F
wind
direction
speed
MPH
gust
MPH
rain 1hr
in
rain 24hr
in
rain mn
in
humidity
%
barometer
mb
20260506072939 57 236 10.0 20.0 0.00 0.00 0.00 89 1013.8
20260506071939 57 225 9.0 23.0 0.00 0.00 0.00 89 1013.9
20260506070927 58 221 11.0 23.0 0.00 0.00 0.00 89 1013.9
20260506062026 58 201 10.0 23.0 0.00 0.00 0.00 87 1013.7
20260506060955 58 244 10.0 22.0 0.00 0.00 0.00 87 1013.8
20260506050719 59 234 9.0 20.0 0.00 0.00 0.00 86 1014.0
20260506044706 59 255 12.0 26.0 0.00 0.00 0.00 86 1013.9
20260506042527 59 227 10.0 24.0 0.00 0.00 0.00 86 1014.0
20260506041535 59 229 9.0 23.0 0.00 0.00 0.00 85 1013.9
20260506035340 58 245 9.0 23.0 0.00 0.00 0.00 85 1014.1
20260506034340 58 232 9.0 25.0 0.00 0.00 0.00 86 1014.2
20260506033319 58 228 8.0 25.0 0.00 0.00 0.00 85 1014.1
20260506032258 58 279 10.0 24.0 0.00 0.00 0.00 85 1014.1
20260506031244 58 245 10.0 24.0 0.00 0.00 0.00 85 1014.1
20260506030227 58 215 10.0 22.0 0.00 0.00 0.00 85 1014.2
20260506025209 59 215 9.0 21.0 0.00 0.00 0.00 85 1014.1
20260506024146 59 207 9.0 20.0 0.00 0.00 0.00 85 1014.1
20260506023114 59 263 8.0 19.0 0.00 0.00 0.00 85 1014.2
20260506022055 59 217 9.0 18.0 0.00 0.00 0.00 85 1014.3
20260506021024 59 0 10.0 23.0 0.00 0.00 0.00 84 1014.2
20260506014945 59 236 10.0 23.0 0.00 0.00 0.00 84 1013.9
20260506013939 59 213 9.0 19.0 0.00 0.00 0.00 84 1013.9
20260506010658 60 234 12.0 26.0 0.00 0.00 0.00 82 1013.4
20260506005630 60 217 12.0 25.0 0.00 0.00 0.00 82 1013.5
20260506004644 60 215 12.0 28.0 0.00 0.00 0.00 81 1013.4
20260506002520 60 227 12.0 26.0 0.00 0.00 0.00 81 1013.1
20260506001512 60 340 14.0 30.0 0.00 0.00 0.00 81 1013.1
20260506000502 60 339 12.0 30.0 0.00 0.00 0.00 81 1012.9
20260505235521 60 236 12.0 27.0 0.00 0.00 0.00 82 1012.9
20260505234502 60 209 12.0 29.0 0.00 0.00 0.00 81 1012.5
20260505233436 60 178 13.0 29.0 0.00 0.00 0.00 81 1012.3
20260505230250 60 242 11.0 30.0 0.00 0.00 0.00 81 1012.1
20260505225240 60 203 12.0 30.0 0.00 0.00 0.00 81 1011.9
20260505223114 61 204 12.0 28.0 0.00 0.00 0.00 80 1011.9
20260505222134 61 248 13.0 28.0 0.00 0.00 0.00 80 1011.9
20260505221114 61 209 12.0 28.0 0.00 0.00 0.00 79 1011.7
20260505220104 61 208 12.0 25.0 0.00 0.00 0.00 79 1011.8
20260505215032 61 230 13.0 29.0 0.00 0.00 0.00 79 1011.7
20260505212900 62 182 14.0 30.0 0.00 0.00 0.00 79 1011.4
20260505211907 62 198 14.0 30.0 0.00 0.00 0.00 78 1011.4
20260505210856 62 238 13.0 27.0 0.00 0.00 0.00 79 1011.3
20260505204729 62 218 12.0 27.0 0.00 0.00 0.00 78 1011.3
20260505203736 62 200 12.0 24.0 0.00 0.00 0.00 78 1011.2
20260505202702 62 103 10.0 22.0 0.00 0.00 0.00 77 1011.3
20260505201718 63 238 7.0 19.0 0.00 0.00 0.00 77 1011.4
20260505200736 62 258 8.0 19.0 0.00 0.00 0.00 79 1011.5
20260505195743 62 227 7.0 19.0 0.00 0.00 0.00 79 1011.9
20260505194725 61 183 9.0 19.0 0.00 0.00 0.00 80 1012.0
20260505193712 61 225 9.0 19.0 0.00 0.00 0.00 80 1012.1
20260505190424 62 235 10.0 20.0 0.00 0.00 0.00 80 1012.6
20260505185358 62 200 9.0 21.0 0.00 0.00 0.00 80 1012.8
20260505184328 61 224 9.0 21.0 0.00 0.00 0.00 82 1013.0
20260505182124 60 212 9.0 20.0 0.00 0.00 0.00 82 1013.2
20260505181052 61 219 8.0 20.0 0.00 0.00 0.00 81 1013.2
20260505173758 60 214 8.0 18.0 0.00 0.00 0.00 82 1013.3
20260505172801 60 215 9.0 23.0 0.00 0.00 0.00 83 1013.4
20260505171806 60 156 9.0 23.0 0.00 0.00 0.00 83 1013.5
20260505170808 59 209 10.0 17.0 0.00 0.00 0.00 83 1013.6
20260505165808 60 230 9.0 17.0 0.00 0.00 0.00 83 1013.6
20260505164816 60 216 8.0 16.0 0.00 0.00 0.00 84 1013.6
20260505163756 60 234 8.0 15.0 0.00 0.00 0.00 81 1013.9
20260505162744 61 232 6.0 17.0 0.00 0.00 0.00 83 1013.9
20260505161722 60 223 9.0 17.0 0.00 0.00 0.00 84 1013.9
20260505160725 60 185 7.0 17.0 0.00 0.00 0.00 83 1014.1
20260505151549 60 203 8.0 16.0 0.00 0.00 0.00 83 1014.5
20260505150528 60 209 7.0 14.0 0.00 0.00 0.00 83 1014.6
20260505140149 59 233 7.0 13.0 0.00 0.00 0.00 85 1014.4
20260505124852 57 199 5.0 13.0 0.00 0.00 0.00 89 1013.9
20260505123909 57 217 6.0 12.0 0.00 0.00 0.00 89 1014.0
20260505121716 57 174 5.0 9.0 0.00 0.00 0.00 89 1014.1
20260505120735 57 214 5.0 9.0 0.00 0.00 0.00 89 1014.1
20260505115756 57 198 4.0 7.0 0.00 0.00 0.00 88 1013.9
20260505114738 58 226 2.0 8.0 0.00 0.00 0.00 89 1013.8
20260505111536 56 200 3.0 11.0 0.00 0.00 0.00 91 1013.9
20260505110545 56 248 4.0 11.0 0.00 0.00 0.00 91 1014.1
20260505101442 54 217 4.0 12.0 0.00 0.00 0.00 92 1013.2
20260505100448 54 203 4.0 12.0 0.00 0.00 0.00 92 1013.0
20260505095418 54 202 3.0 6.0 0.00 0.00 0.00 92 1013.0
20260505094432 54 185 2.0 7.0 0.00 0.00 0.00 92 1012.9
20260505093451 54 215 3.0 7.0 0.00 0.00 0.00 91 1013.0
20260505092423 54 212 3.0 6.0 0.00 0.00 0.00 91 1013.0
20260505090247 54 217 2.0 8.0 0.00 0.00 0.00 91 1012.9
20260505084103 54 227 4.0 12.0 0.00 0.00 0.00 91 1012.9
20260505083128 54 227 4.0 11.0 0.00 0.00 0.00 91 1013.0
20260505082054 54 237 4.0 10.0 0.00 0.00 0.00 90 1013.2
20260505081028 54 239 3.0 11.0 0.00 0.00 0.00 90 1013.1